Hendersonville, NC

6:40 PM EDT on August 29, 2015 (GMT -0400)
Maplewood Ct off Hwy 191 in City | | Change Station
CLOSE
Current Station
Personal Weather Station
Location: Hendersonville, NC
Elevation: 2133 ft
Nearby Weather Stations

Elev 2133 ft 35.33 °N, 82.48 °W | Updated 22 seconds ago

Partly Cloudy
Partly Cloudy
75.0 °F
Feels Like 76 °F
N
0.0
Wind Variable Wind from South
Gusts 0.0 mph

Today
High -- | Low -- °F
--% Chance of Precip.
Yesterday
High -- | Low -- °F
Precip. -- in
6:59 AM 8:01 PM
Full, 100% visible
Pressure 30.14 in
Visibility 10.0 miles
Clouds Few 5500 ft
Heat Index 76 °F
Dew Point 66 °F
Humidity 74%
Rainfall 0.00 in
Snow Depth Not available.
UV 2 out of 12
Pollen 8.50 out of 12
Air Quality Not available.
Flu Activity Not available.
METAR KAVL 292154Z 17008KT 10SM FEW055 25/13 A3020 RMK AO2 SLP205 T02500128
Pressure 30.14 in
Visibility 10.0 miles
Clouds Few 5500 ft
Heat Index 76 °F
Dew Point 66 °F
Humidity 74%
Rainfall 0.00 in
Snow Depth Not available.
UV 2 out of 12
Pollen 8.50 out of 12
Air Quality Not available.
Flu Activity Not available.
METAR KAVL 292154Z 17008KT 10SM FEW055 25/13 A3020 RMK AO2 SLP205 T02500128

10-Day Weather Forecast

×

Almanac

Astronomy

Aug. 29, 2015 Rise Set
Actual Time
Civil Twilight
Nautical Twilight
Astronomical Twilight
Moon
Length of Visible Light
Length of Day
Tomorrow will be .
, % of the Moon is Illuminated

Today's Extremes

State Highs State Lows

Community

WunderPhotos

Upload Photos

1,850,775 photos uploaded!

WunderBlogs® & News

Nearby

Air Quality

  Air Quality AQ Index Pollutant
Not available.

Snow Depth

Station Depth Elevation

Earthquake Activity

City Distance Mag. Time & Date
Minimum magnitude displayed is 2.5.

Coastal Water Temperatures

Place Temperature

Stations

Nearby Weather Stations

Station Location Temp. Windchill Dew Point Humidity Wind Precip. Elev Updated Type